Flag for Australia Weather past 2 weeks in Sydney, New South Wales, Australia

Now
57 °F

Passing clouds.


Feels Like: 55 °F
Forecast: 55 / 71 °F
Wind: 10 mph from West

Location: Sydney Airport


UV Index: 3 (Moderate)

Visibility: N/A


Pressure: 30.12 "Hg

Humidity: 55%

Dew point: 41 °F

Location of SydneyLocation

Historic Weather in Sydney

°F

Sydney temperature yesterday

Maximum temperature yesterday: 75 °F (at 2:00 PM)
Minimum temperature yesterday: 55 °F (at 3:00 AM)
Average temperature yesterday: 65 °F

Past Weeks' High & Low Weather Summary

 TemperatureHumidityPressure
High81 °F (Apr 11, 11:00 AM)100% (Apr 11, 1:30 AM)30.27 "Hg (Apr 11, 1:30 AM)
Low55 °F (Apr 17, 4:00 AM)28% (Apr 18, 2:30 PM)29.59 "Hg (Apr 11, 2:00 PM)
Average66 °F71%30.03 "Hg
* Reported Apr 6 6:00 AM — Apr 21 6:30 AM, Sydney, Weather by CustomWeather, © 2014

Note: Actual official high and low records may vary slightly from our data, if they occured in-between our weather recording intervals... More about our weather records

Advertising

Historic Weather Conditions — Data for Previous 24 hours

 ConditionsComfort  
Time TempWeatherWind HumidityBarometerVisibility
6:30 AM
Apr 21
55 °FPassing clouds.13 mph55%30.09 "HgN/A
6:00 AM55 °FPassing clouds.14 mph59%30.09 "HgN/A
5:30 AM55 °FPassing clouds.12 mph59%30.09 "HgN/A
5:00 AM55 °FPassing clouds.9 mph59%30.09 "HgN/A
4:30 AM55 °FPassing clouds.9 mph59%30.07 "HgN/A
4:00 AM57 °FPassing clouds.6 mph51%30.07 "HgN/A
3:30 AM57 °FPassing clouds.9 mph55%30.07 "HgN/A
3:00 AM59 °FPassing clouds.9 mph51%30.07 "HgN/A
2:00 AM59 °FPassing clouds.10 mph51%30.07 "HgN/A
1:30 AM59 °FPassing clouds.9 mph51%30.07 "HgN/A
1:00 AM59 °FPassing clouds.8 mph55%30.07 "HgN/A
12:30 AM61 °FPassing clouds.8 mph52%30.07 "HgN/A
12:00 AM61 °FPassing clouds.8 mph55%30.04 "HgN/A
11:30 PM
Apr 20
61 °FPassing clouds.10 mph63%30.04 "HgN/A
11:00 PM63 °FClear.13 mph59%30.04 "Hg10 mi
10:30 PM63 °FClear.13 mph73%30.04 "Hg10 mi
10:00 PM64 °FClear.7 mph83%30.04 "Hg10 mi
9:30 PM66 °FClear.3 mph83%30.04 "Hg10 mi
9:00 PM66 °FPassing clouds.No wind83%30.01 "HgN/A
8:30 PM66 °FPassing clouds.No wind78%30.01 "HgN/A
8:00 PM70 °FClear.5 mph64%30.01 "Hg10 mi
7:30 PM70 °FClear.6 mph64%30.01 "Hg10 mi
7:00 PM70 °FClear.6 mph64%29.98 "Hg10 mi
6:30 PM68 °FClear.8 mph69%29.98 "Hg10 mi
6:00 PM70 °FPassing clouds.10 mph64%29.98 "HgN/A
5:30 PM70 °FClear.12 mph64%29.98 "Hg10 mi
5:00 PM72 °FClear.14 mph57%29.95 "Hg10 mi
4:30 PM72 °FPassing clouds.15 mph57%29.95 "HgN/A
4:00 PM72 °FPassing clouds.14 mph57%29.95 "HgN/A
3:30 PM73 °FPassing clouds.13 mph50%29.95 "HgN/A
3:00 PM72 °FPassing clouds.15 mph53%29.95 "HgN/A
2:30 PM72 °FPassing clouds.16 mph53%29.95 "HgN/A
2:00 PM75 °FPassing clouds.9 mph44%29.95 "HgN/A
1:30 PM73 °FScattered clouds.7 mph47%29.95 "HgN/A
12:30 PM73 °FScattered clouds.9 mph44%29.98 "HgN/A
12:00 PM73 °FPassing clouds.6 mph44%30.01 "HgN/A
11:30 AM70 °FScattered clouds.5 mph50%30.01 "HgN/A
11:00 AM68 °FScattered clouds.6 mph53%30.04 "HgN/A
10:30 AM70 °FPassing clouds.6 mph50%30.04 "HgN/A
10:00 AM70 °FPassing clouds.6 mph43%30.07 "HgN/A
9:30 AM66 °FPassing clouds.8 mph49%30.07 "HgN/A
9:00 AM64 °FScattered clouds.8 mph52%30.07 "HgN/A
8:30 AM63 °FSunny.7 mph56%30.07 "Hg10 mi
8:00 AM61 °FSunny.7 mph59%30.07 "Hg10 mi
Weather by CustomWeather, © 2014

See weather overview